sat.trackr.live / text

‹ back to catalog

STARLINK-30351

NORAD 57738 · 2023-131G

PAYLOAD ACTIVE UNKNOWN

§ Identity

Operator
Country
US
Launch date
2023-09-01
Launch site
AFETR
Launch vehicle
Mass (kg)
RCS (m²)

Purposes: comms

External: N2YO · Heavens-Above · Gunter

§ Orbital elements

Epoch: 2026-09-20T02:44:08.021472Z

Period
94.27 min
Inclination
43.0013°
Eccentricity
0.0001590
Mean motion
15.27577520 rev/d
Perigee alt
482.0 km
Apogee alt
484.1 km
Semi-major
6,861.2 km
B*
2.3493e-5
RAAN
154.2369°
Arg perigee
270.2434°
Mean anomaly
89.8235°
Rev number
16,965

§ Raw data

STARLINK-303511 57738U 23131G   26263.11398173  .00000384  00000+0  23493-4 0  99912 57738  43.0013 154.2369 0001590 270.2434  89.8235 15.27577520169653

JSON: /api/v1/satellites/57738 · /tle

For live sub-satellite position, see the globe view (requires WebGL).

§ Visibility from observer

Set your observer location to see the next 7 days of passes ≥ 10°. The values pass through the URL so the page stays shareable.

No JS? Fill the form by hand. The geolocation button needs JavaScript.